Weather History for KDHT - December, 2012

Change the Weather History Date:

Tuesday, December 11, 2012

  Actual Average Record
Temperature  
Mean Temperature 29 °F 34 °F  
Max Temperature 43 °F 49 °F 74 °F (1990)
Min Temperature 14 °F 20 °F -9 °F (1961)
Degree Days  
Heating Degree Days 36 31  
Month to date heating degree days 246 323  
Since 1 July heating degree days 1054 1318  
Cooling Degree Days 0 0  
Month to date cooling degree days 0 0  
Year to date cooling degree days 1648 1138  
Moisture  
Dew Point 8 °F    
Average Humidity 45    
Maximum Humidity 67    
Minimum Humidity 22    
Precipitation  
Precipitation 0.00 in 0.02 in 0.39 in (1991)
Month to date precipitation T 0.19  
Year to date precipitation 6.35 17.24  
Snow  
Snow 0.00 in 0.10 in 1.00 in (1972)
Month to date snowfall T 1.4  
Since 1 July snowfall T 3.3  
Snow Depth 0.00 in    
Sea Level Pressure  
Sea Level Pressure 30.08 in    
Wind  
Wind Speed 9 mph (West)    
Max Wind Speed 18 mph    
Max Gust Speed 22 mph    
Visibility 10 miles    
Events      
T = Trace of Precipitation, MM = Missing Value Source: NWS Daily Summary

Daily Weather History Graph

Daily Weather History Graph

Search for Another Location

Airport or City:

Trip Planner

Search our weather history database for the weather conditions in past years. The results will help you decide how hot, cold, wet, or windy it might be!

Date:

Astronomy

Dec. 11, 2012 Rise Set
Actual Time 7:51 AM CST 5:36 PM CST
Civil Twilight 7:22 AM CST 6:04 PM CST
Nautical Twilight 6:50 AM CST 6:36 PM CST
Astronomical Twilight 6:19 AM CST 7:08 PM CST
Moon 5:50 AM CST (12/11) 4:16 PM CST (12/11)
Length of Visible Light 10h 42m
Length of Day
9h 45m
Waning Crescent, 4% of the Moon is Illuminated
Dec 11
Waning Crescent
Dec 13
New
Dec 19
First Quarter
Dec 28
Full
Jan 4
Last Quarter

Hourly Weather History & Observations

Time (CST) Temp. Windchill Dew Point Humidity Pressure Visibility Wind Dir Wind Speed Gust Speed Precip Events Conditions
12:53 AM 28.0 °F 20.8 °F 12.0 °F 51% 29.99 in 10.0 mi Variable 6.9 mph - N/A   Overcast
1:53 AM 23.0 °F 15.8 °F 10.9 °F 60% 29.99 in 10.0 mi West 5.8 mph - N/A   Overcast
2:53 AM 19.0 °F 10.0 °F 9.0 °F 65% 30.00 in 10.0 mi WNW 6.9 mph - N/A   Clear
3:53 AM 16.0 °F 10.4 °F 6.1 °F 65% 30.01 in 10.0 mi WNW 3.5 mph - N/A   Clear
4:53 AM 18.0 °F 11.1 °F 3.9 °F 54% 30.02 in 10.0 mi NW 4.6 mph - N/A   Clear
5:53 AM 16.0 °F 5.3 °F 3.9 °F 59% 30.06 in 10.0 mi WNW 8.1 mph - N/A   Clear
6:53 AM 19.0 °F 6.8 °F 7.0 °F 59% 30.09 in 10.0 mi NNW 11.5 mph - N/A   Clear
7:53 AM 21.9 °F 9.2 °F 9.0 °F 58% 30.13 in 10.0 mi North 13.8 mph - N/A   Clear
8:53 AM 26.1 °F 14.0 °F 10.9 °F 53% 30.15 in 10.0 mi North 15.0 mph - N/A   Clear
9:53 AM 30.9 °F 20.2 °F 14.0 °F 50% 30.14 in 10.0 mi NNE 15.0 mph - N/A   Clear
10:53 AM 35.1 °F 24.8 °F 15.1 °F 44% 30.15 in 10.0 mi NNE 17.3 mph - N/A   Clear
11:53 AM 37.0 °F 31.0 °F 14.0 °F 39% 30.13 in 10.0 mi NE 8.1 mph - N/A   Clear
12:53 PM 41.0 °F 37.1 °F 12.9 °F 32% 30.08 in 10.0 mi North 5.8 mph - N/A   Clear
1:53 PM 42.1 °F 40.2 °F 12.0 °F 29% 30.07 in 10.0 mi Variable 3.5 mph - N/A   Clear
2:53 PM 43.0 °F 39.5 °F 10.0 °F 26% 30.06 in 10.0 mi SSW 5.8 mph - N/A   Clear
3:53 PM 43.0 °F 39.5 °F 8.1 °F 24% 30.05 in 10.0 mi South 5.8 mph - N/A   Clear
4:53 PM 42.1 °F 37.7 °F 7.0 °F 24% 30.06 in 10.0 mi SW 6.9 mph - N/A   Clear
5:53 PM 34.0 °F 27.2 °F 7.0 °F 32% 30.09 in 10.0 mi SW 8.1 mph - N/A   Clear
6:53 PM 25.0 °F 15.5 °F 3.0 °F 39% 30.12 in 10.0 mi South 9.2 mph - N/A   Clear
7:53 PM 19.0 °F 9.0 °F 1.9 °F 47% 30.12 in 10.0 mi South 8.1 mph - N/A   Clear
8:53 PM 18.0 °F 7.7 °F 3.0 °F 52% 30.12 in 10.0 mi SSW 8.1 mph - N/A   Clear
9:53 PM 16.0 °F 4.4 °F 1.9 °F 54% 30.10 in 10.0 mi South 9.2 mph - N/A   Clear
10:53 PM 15.1 °F 3.3 °F 3.0 °F 59% 30.09 in 10.0 mi SSW 9.2 mph - N/A   Clear
11:53 PM 15.1 °F 3.3 °F 3.0 °F 59% 30.08 in 10.0 mi SSW 9.2 mph - N/A   Clear